This is the latest recevied weather packets stored in our database for station/object N1ORT. If no packets are shown the sender has not sent any weather packets the latest 10 day(s).
| Time | Temp. | Humidity | Pressure | Rain* | Wind** | Luminosity | Snow |
|---|---|---|---|---|---|---|---|
| 1788523073 | 18.33° C | 99% | 1008.7 hPa | 0 mm | - | 93 W/m² | - |
| 1788522768 | 18.33° C | 99% | 1008.9 hPa | 0 mm | - | 95 W/m² | - |
| 1788522463 | 18.33° C | 99% | 1008.8 hPa | 0 mm | - | 86 W/m² | - |
| 1788522163 | 18.33° C | 99% | 1008.8 hPa | 0 mm | - | 79 W/m² | - |
| 1788521858 | 18.33° C | 99% | 1008.7 hPa | 0 mm | - | 61 W/m² | - |
| 1788521556 | 18.33° C | 99% | 1008.7 hPa | 0 mm | - | 61 W/m² | - |
| 1788521252 | 18.33° C | 99% | 1008.6 hPa | 0 mm | - | 55 W/m² | - |
| 1788520947 | 18.33° C | 99% | 1008.7 hPa | 0 mm | - | 53 W/m² | - |
| 1788520637 | 18.33° C | 99% | 1008.8 hPa | 0 mm | - | 59 W/m² | - |
| 1788520333 | 18.33° C | 99% | 1008.5 hPa | 0 mm | - | 38 W/m² | - |
| 1788520028 | 18.33° C | 99% | 1008.5 hPa | 0 mm | - | 38 W/m² | - |
| 1788519727 | 18.33° C | 99% | 1008.5 hPa | 0 mm | - | 32 W/m² | - |
| 1788519422 | 18.33° C | 99% | 1008.5 hPa | 0 mm | - | 22 W/m² | - |
| 1788519117 | 18.33° C | 99% | 1008.6 hPa | 0 mm | - | 22 W/m² | - |
| 1788518813 | 18.33° C | 99% | 1008.3 hPa | 0 mm | - | 17 W/m² | - |
| 1788518508 | 17.78° C | 99% | 1008.6 hPa | 0 mm | - | 15 W/m² | - |
| 1788518204 | 17.78° C | 99% | 1008.4 hPa | 0 mm | - | 10 W/m² | - |
| 1788517899 | 17.78° C | 99% | 1008.7 hPa | 0 mm | - | 9 W/m² | - |
| 1788517596 | 17.78° C | 99% | 1008.5 hPa | 0 mm | - | 6 W/m² | - |
| 1788517290 | 17.78° C | 99% | 1008.5 hPa | 0 mm | - | 5 W/m² | - |
| 1788516987 | 17.78° C | 99% | 1008.7 hPa | 0 mm | - | 3 W/m² | - |
| 1788516683 | 17.78° C | 99% | 1008.5 hPa | 0 mm | - | 1 W/m² | - |
| 1788516386 | 17.78° C | 99% | 1008.7 hPa | 0 mm | - | 1 W/m² | - |
| 1788516073 | 17.78° C | 99% | 1008.4 hPa | 0 mm | - | 0 W/m² | - |
| 1788515768 | 17.78° C | 99% | 1008.5 hPa | 0 mm | - | 0 W/m² | - |
* Rain latest hour (hover to see other rain measurements)
** Current wind speed in m/s (hover to see current wind gust speed)